Home   Weather   Abidjan   Past weeks

Flag for Cote d'Ivoire (Ivory Coast) Past Weather in Abidjan, Cote d'Ivoire (Ivory Coast) — Yesterday and Last 2 Weeks

Now
82 °F

Scattered clouds.


Feels Like: 89 °F
Forecast: 77 / 86 °F
Wind: 10 mph from Southwest

Location: Abidjan Airport

Current Time: Oct 1, 2016 at 10:33:43 AM

Latest Report: Oct 1, 2016 at 10:00 AM


Visibility: N/A

Pressure: 29.92 "Hg

Humidity: 79%

Dew Point: 75 °F

Location of AbidjanLocation

Past Weather in Abidjan — Graph

°F

Abidjan Temperature Yesterday

Maximum temperature yesterday: 84 °F (at 10:00 AM)
Minimum temperature yesterday: 77 °F (at 12:00 AM)
Average temperature yesterday: 80 °F

High & Low Weather Summary for the Past Weeks

 TemperatureHumidityPressure
High84 °F (Sep 17, 1:30 PM)100% (Sep 17, 9:30 PM)30.04 "Hg (Sep 17, 9:30 PM)
Low73 °F (Sep 17, 3:30 PM)70% (Sep 17, 1:30 PM)29.77 "Hg (Sep 25, 3:30 PM)
Average79 °F89%29.92 "Hg
* Reported Sep 16 9:00 AM — Oct 1 9:00 AM, Abidjan, Weather by CustomWeather, © 2016

Note: Actual official high and low records may vary slightly from our data, if they occured in-between our weather recording intervals... More about our weather records

Advertising

Abidjan Weather History for the Previous 24 Hours

Scroll right to see more
 ConditionsComfort  
Time TempWeatherWind HumidityBarometerVisibility
9:00 AM
Sat, Oct 1
81 °FBroken clouds.8 mph89%29.92 "HgN/A
8:30 AM79 °FBroken clouds.7 mph94%29.92 "HgN/A
8:00 AM77 °FBroken clouds.7 mph94%29.92 "HgN/A
7:30 AM79 °FBroken clouds.5 mph94%29.92 "HgN/A
7:00 AM77 °FScattered clouds.3 mph100%29.89 "HgN/A
6:30 AM77 °FScattered clouds.3 mph100%29.89 "HgN/A
6:00 AM77 °FPassing clouds.3 mph100%29.89 "HgN/A
5:30 AM77 °FPassing clouds.3 mph100%29.89 "HgN/A
5:00 AM77 °FPassing clouds.3 mph100%29.89 "HgN/A
4:30 AM79 °FPassing clouds.3 mph89%29.89 "HgN/A
4:00 AM79 °FPassing clouds.6 mph94%29.86 "HgN/A
3:30 AM79 °FPassing clouds.1 mph94%29.86 "HgN/A
3:00 AM79 °FPassing clouds.2 mph94%29.89 "HgN/A
2:30 AM79 °FPassing clouds.2 mph89%29.89 "HgN/A
2:00 AM79 °FPassing clouds.5 mph89%29.89 "HgN/A
1:30 AM79 °FPassing clouds.7 mph89%29.89 "HgN/A
1:00 AM79 °FPassing clouds.7 mph89%29.89 "HgN/A
12:30 AM79 °FPassing clouds.6 mph89%29.92 "HgN/A
12:00 AM79 °FPassing clouds.6 mph89%29.92 "HgN/A
11:30 PM
Fri, Sep 30
79 °FPassing clouds.5 mph89%29.95 "HgN/A
11:00 PM79 °FPassing clouds.5 mph89%29.95 "HgN/A
10:30 PM79 °FPassing clouds.5 mph89%29.92 "HgN/A
10:00 PM79 °FPassing clouds.5 mph89%29.92 "HgN/A
9:30 PM79 °FPassing clouds.6 mph89%29.92 "HgN/A
9:00 PM79 °FPassing clouds.5 mph89%29.92 "HgN/A
8:30 PM79 °FPassing clouds.7 mph89%29.89 "HgN/A
8:00 PM79 °FPassing clouds.8 mph89%29.89 "HgN/A
7:30 PM79 °FPassing clouds.7 mph89%29.86 "HgN/A
7:00 PM79 °FPassing clouds.7 mph89%29.86 "HgN/A
6:30 PM81 °FPassing clouds.9 mph84%29.83 "HgN/A
6:00 PM81 °FScattered clouds.8 mph84%29.83 "HgN/A
5:30 PM81 °FScattered clouds.9 mph84%29.83 "HgN/A
5:00 PM82 °FScattered clouds.10 mph79%29.86 "HgN/A
4:30 PM82 °FScattered clouds.13 mph79%29.86 "HgN/A
4:00 PM82 °FScattered clouds.13 mph79%29.86 "HgN/A
3:30 PM84 °FScattered clouds.12 mph74%29.86 "HgN/A
3:00 PM84 °FScattered clouds.12 mph74%29.89 "HgN/A
2:30 PM84 °FScattered clouds.13 mph74%29.89 "HgN/A
2:00 PM84 °FScattered clouds.15 mph74%29.89 "HgN/A
1:30 PM84 °FScattered clouds.15 mph79%29.92 "HgN/A
1:00 PM84 °FScattered clouds.13 mph79%29.92 "HgN/A
12:30 PM84 °FScattered clouds.14 mph74%29.92 "HgN/A
12:00 PM84 °FScattered clouds.12 mph79%29.95 "HgN/A
11:30 AM84 °FScattered clouds.12 mph74%29.95 "HgN/A
11:00 AM84 °FBroken clouds.12 mph74%29.98 "HgN/A
10:30 AM84 °FBroken clouds.10 mph74%29.98 "HgN/A
10:00 AM84 °FScattered clouds.12 mph74%29.98 "HgN/A
Weather by CustomWeather, © 2016

See weather overviewHow to use our weather pages